This is the latest recevied weather packets stored in our database for station/object DG2US-10. If no packets are shown the sender has not sent any weather packets the latest 10 day(s).
| Time | Temp. | Humidity | Pressure | Rain* | Wind** | Luminosity | Snow |
|---|---|---|---|---|---|---|---|
| 1777814736 | 32.22° C | 19% | 1012.5 hPa | - | - | - | - |
| 1777813836 | 34.44° C | 22% | 1012.5 hPa | - | - | - | - |
| 1777812936 | 35° C | 20% | 1012.6 hPa | - | - | - | - |
| 1777812036 | 34.44° C | 20% | 1012.8 hPa | - | - | - | - |
| 1777811136 | 33.33° C | 21% | 1012.7 hPa | - | - | - | - |
| 1777810236 | 33.33° C | 20% | 1013.1 hPa | - | - | - | - |
| 1777809336 | 33.33° C | 19% | 1013.2 hPa | - | - | - | - |
| 1777808436 | 34.44° C | 14% | 1013.4 hPa | - | - | - | - |
| 1777807536 | 35° C | 19% | 1013.5 hPa | - | - | - | - |
| 1777806636 | 35.56° C | 17% | 1013.8 hPa | - | - | - | - |
| 1777805735 | 37.22° C | 17% | 1013.9 hPa | - | - | - | - |
| 1777804835 | 37.22° C | 16% | 1014.1 hPa | - | - | - | - |
| 1777803935 | 40° C | 14% | 1014.1 hPa | - | - | - | - |
| 1777803035 | 38.33° C | 15% | 1014.2 hPa | - | - | - | - |
| 1777802135 | 39.44° C | 14% | 1014.5 hPa | - | - | - | - |
| 1777801235 | 37.78° C | 18% | 1014.6 hPa | - | - | - | - |
| 1777800335 | 37.78° C | 15% | 1014.7 hPa | - | - | - | - |
| 1777799435 | 37.22° C | 15% | 1014.8 hPa | - | - | - | - |
| 1777798535 | 36.67° C | 18% | 1014.9 hPa | - | - | - | - |
| 1777797635 | 35° C | 17% | 1014.9 hPa | - | - | - | - |
| 1777796735 | 34.44° C | 18% | 1014.9 hPa | - | - | - | - |
| 1777795835 | 33.33° C | 20% | 1015.1 hPa | - | - | - | - |
| 1777794934 | 31.11° C | 21% | 1015.1 hPa | - | - | - | - |
| 1777794034 | 31.11° C | 22% | 1015.1 hPa | - | - | - | - |
| 1777793134 | 28.33° C | 23% | 1015.2 hPa | - | - | - | - |
* Rain since midnight (hover to see other rain measurements)
** Current wind speed in m/s (hover to see current wind gust speed)